Weather Roundup
Issued by NWS Chicago, IL

Home | Current Version | Previous Version | Graphics & Text | Print | Product List | Glossary On
Versions: 1 2 3 4 5 6 7 8 9 10 11 12 13 14 15 16 17 18 19 20 21 22 23 24 25 26 27 28 29 30 31 32 33 34 35 36 37 38 39 40 41 42 43 44 45 46 47 48 49 50
000
NZUS59 KLOT 310808
HRRLOT

CHICAGO AREA WEATHER ROUNDUP
NATIONAL WEATHER SERVICE CHICAGO/ROMEOVILLE IL
300 AM CDT FRI JUL 31 2015

NOTE: "FAIR" INDICATES FEW OR NO CLOUDS BELOW 12,000 FEET WITH NO
SIGNIFICANT WEATHER AND/OR OBSTRUCTIONS TO VISIBILITY.

* THESE STATIONS ARE NOT UNDER NWS QUALITY CONTROL. THEY ALSO MAY NOT
  REPORT WEATHER SUCH AS PRECIPITATION OR FOG.

ILZ005-006-012>014-019>023-310900-
NORTHEAST ILLINOIS

CITY           SKY/WX    TMP DP  RH WIND       PRES   REMARKS
OHARE          CLEAR     71  58  63 W7        30.03S
MIDWAY         CLEAR     74  57  55 W7        30.03S
AURORA         CLEAR     61  58  90 CALM      30.06S
LANSING*       CLEAR     63  60  89 CALM      30.04S
JOLIET*        CLEAR     67  63  85 CALM      30.05F
WAUKEGAN       CLEAR     68  57  68 CALM      30.01S
DUPAGE AIRPORT CLEAR     67  58  72 W6        30.04S
WHEELING       CLEAR     71  56  58 W5        30.04S
KANKAKEE*      CLEAR     67  65  91 W5        30.06S
MORRIS*        CLEAR     64  62  92 W6        30.05S
LEWIS AIRPORT* CLEAR     66  59  79 NW7       30.05S
NORTHERLY IS     N/A     75  56  51 W7          N/A
$$

WIZ051-052-058>065-066-070>072-310900-
SOUTHEAST WISCONSIN

CITY           SKY/WX    TMP DP  RH WIND       PRES   REMARKS
MILWAUKEE      CLEAR     71  55  56 W7        29.99S
KENOSHA*       CLEAR     65  57  75 W8        30.02S
RACINE*        CLEAR     68  56  65 W7        30.02S
BURLINGTON     CLEAR     64  55  74 CALM      30.02S
WAUKESHA       CLEAR     66  54  63 W7        30.02S
WEST BEND      CLEAR     66  54  63 CALM      29.99S
$$

INZ001>003-010>013-019-020-310900-
NORTHWEST INDIANA

CITY           SKY/WX    TMP DP  RH WIND       PRES   REMARKS
GARY*          CLEAR     71  63  74 SW6       30.04S
MICHIGAN CITY* NOT AVBL
RENSSELAER*    NOT AVBL
VALPARAISO     CLEAR     66  61  84 W7        30.04S
$$

LMZ740>746-310900-
SOUTHERN LAKE MICHIGAN

STATION/POSITION TIME  SKY/WX   TEMP WIND        PRES    VSBY
                                AIR  DIR/SP/G
                 (UTC)          (F)  (DEG/KT/KT) (MB)    (MI)
HARRISON CRIB    0700            76  290/ 13/ 17   N/A
BURNHAM HARBOR   0800            75  270/  6/ 10   N/A
CALUMET HARBOR   0700            74  270/  3/  6   N/A
BURNS HARBOR     0700            74  250/  8/  9 1017.3R
MICHIGAN CITY    0715            75  250/ 11/ 13   N/A
$$

ABBREVIATIONS USED IN REMARKS
   TC - TEMPERATURE IN CELSIUS
  WCI - WIND CHILL INDEX
   HX - HEAT INDEX
  VSB - VISIBILITY
$$



USA.gov is the U.S. government's official web portal to all federal, state and local government web resources and services.